Wind_Speed
39 39 40 40 41 42 43 43 45 44 43 43 44 45 46 46 47 47 47 48 48 48 48 49 50 50 51 51 51 51 50 49 49 47 48 49 48 47
37 38 38 39 40 40 42 43 44 44 43 42 43 43 44 44 45 45 45 45 46 46 46 48 50 49 48 49 50 49 49 48 47 47 48 47 46 44
35 36 37 36 36 37 39 40 41 41 40 39 41 41 41 42 43 44 44 43 44 44 46 47 48 48 47 47 47 47 47 47 46 46 44 45 44 42
35 35 34 34 34 35 36 37 37 37 38 38 38 38 39 40 40 41 42 42 43 44 45 46 46 46 44 44 45 45 45 45 45 44 43 43 41 41
32 31 31 31 30 31 33 35 35 35 36 37 36 36 38 39 38 39 41 41 42 42 42 42 43 42 42 43 44 44 43 43 42 41 40 39 38 39
28 29 29 28 28 29 30 32 33 34 35 36 36 36 36 36 38 38 38 40 39 39 40 40 41 42 41 41 41 41 41 41 40 39 37 37 37 38
27 28 28 27 27 28 29 30 31 33 34 34 34 34 34 34 36 37 38 38 38 38 39 39 39 40 40 38 38 39 39 38 38 37 36 36 36 36
26 27 27 27 28 28 29 30 31 32 32 33 32 31 31 31 32 35 36 36 36 37 37 37 37 37 37 37 37 37 37 36 35 35 35 35 35 34
25 26 27 27 27 28 29 30 31 31 32 31 32 31 30 30 31 32 34 34 34 34 34 33 34 34 34 35 36 36 35 34 34 34 32 32 31 31
25 26 27 27 27 28 29 29 30 31 31 31 31 30 30 30 31 32 33 33 31 31 31 31 30 31 31 33 33 33 32 31 31 31 30 29 29 28
25 26 28 28 28 29 30 30 30 31 31 31 30 29 29 30 31 32 31 30 29 28 28 27 27 27 28 29 30 31 30 28 27 28 28 27 27 26
25 27 28 28 28 29 30 30 30 30 30 29 29 29 28 29 30 30 29 28 27 26 26 26 26 25 25 26 27 28 28 26 25 26 25 24 24 23
26 26 26 27 29 29 29 29 29 29 28 27 27 28 28 29 28 28 27 27 26 25 25 25 24 24 25 25 25 25 24 23 23 23 22 22 21 21
26 26 27 28 28 28 28 28 27 27 26 26 26 27 27 27 27 27 26 25 25 24 24 23 23 22 22 22 22 21 21 21 20 20 19 19 19 19
27 27 28 28 28 27 27 27 26 25 25 25 25 26 26 26 26 25 25 24 23 23 22 21 21 21 19 19 18 18 18 18 17 18 18 18 17 17
28 29 29 29 27 26 26 25 24 24 24 23 23 23 24 24 25 24 23 23 22 21 20 19 19 18 18 17 17 16 16 15 15 15 16 15 15 15
28 28 27 26 25 25 24 24 23 22 22 22 22 21 22 22 23 22 21 20 20 20 19 18 17 17 16 15 15 15 14 13 13 13 13 14 14 13
27 26 25 24 23 23 22 21 21 20 21 21 21 21 21 21 20 20 19 19 19 18 17 16 15 15 14 12 12 12 12 12 12 11 12 13 12 12
25 25 24 23 23 22 21 20 20 20 21 22 22 21 21 20 20 19 18 18 18 17 16 15 13 12 10 9 10 11 11 11 10 10 11 11 10 10
24 23 23 22 22 20 19 19 19 20 21 22 22 22 21 21 20 19 18 17 17 16 14 13 11 9 8 8 8 9 9 9 9 9 10 10 9 8
23 23 22 21 20 19 19 19 20 20 21 21 21 20 20 19 18 17 16 15 15 14 13 11 10 9 8 7 7 7 7 8 9 9 9 9 8 7
23 21 20 19 18 18 19 19 19 20 20 20 19 18 18 17 16 16 15 14 13 12 10 10 9 8 7 6 6 6 7 8 8 8 7 7 6 5
21 20 19 18 18 18 18 19 19 20 20 19 18 17 16 15 14 14 12 12 11 10 9 9 9 8 6 5 5 5 6 7 7 7 6 5 3 3
Wind_Direction
268 270 271 269 266 267 269 271 271 269 268 269 268 266 267 269 271 272 271 271 271 271 270 271 271 273 272 273 273 274 275 276 280 282 285 285 285 287
270 271 271 268 268 267 268 271 272 272 272 269 267 267 267 269 272 273 272 271 270 270 271 272 272 274 274 274 274 274 276 276 278 281 283 284 285 287
274 272 271 270 268 269 270 273 274 274 273 271 269 268 268 270 272 273 274 273 271 271 272 273 274 275 276 275 274 275 275 277 278 280 282 283 284 286
275 273 272 272 273 271 271 272 274 274 275 274 271 269 270 272 271 272 274 275 275 273 274 274 274 275 275 275 275 276 276 277 277 280 281 280 281 284
276 275 274 275 276 274 273 273 274 275 276 274 272 271 272 271 271 272 273 277 279 276 274 275 275 275 276 277 276 276 276 277 279 280 280 281 281 284
276 277 276 275 276 277 277 277 277 276 276 276 273 273 275 274 272 272 274 277 279 278 277 276 276 276 277 277 276 276 277 279 279 279 280 280 280 282
277 277 276 277 280 280 281 280 281 280 279 277 275 275 275 273 273 274 276 279 280 280 279 277 276 277 279 278 278 277 277 278 277 277 279 278 279 282
280 278 276 278 280 282 283 282 283 282 281 279 275 276 276 276 276 278 279 280 281 280 280 278 277 279 279 278 278 278 277 277 275 276 279 278 278 280
281 279 277 279 280 281 282 283 284 283 282 281 278 276 277 278 280 281 283 284 285 285 281 277 276 277 277 278 278 279 277 277 276 276 278 278 277 279
282 280 279 279 281 282 283 284 284 283 282 281 280 279 279 281 283 284 285 285 286 288 285 281 279 279 277 278 278 277 278 277 275 275 276 277 275 277
285 282 280 281 282 282 283 284 284 282 282 282 281 279 282 282 284 285 286 286 286 284 285 285 284 282 280 278 278 277 278 278 275 274 273 274 275 276
287 283 281 282 283 284 284 285 284 283 282 281 279 280 284 285 284 285 285 286 286 286 286 286 286 284 282 281 280 277 274 273 272 270 268 270 274 276
287 284 283 284 286 286 286 286 285 284 281 280 280 280 283 286 285 285 285 286 286 286 287 287 287 285 284 283 279 275 270 268 269 267 267 269 273 275
287 286 285 286 287 286 286 287 286 284 281 279 281 283 286 287 287 285 284 285 286 287 288 290 289 287 286 285 281 275 270 268 267 267 266 267 270 274
287 286 287 286 285 284 286 287 285 282 280 280 283 285 288 289 288 286 284 284 285 289 290 290 290 288 286 284 282 277 271 268 268 267 265 263 266 274
288 288 288 286 285 285 286 285 283 281 280 282 285 287 289 290 290 288 285 283 284 287 289 288 289 289 285 282 280 275 271 267 263 261 259 259 266 276
289 290 289 287 285 284 284 283 282 282 283 285 288 290 292 292 290 288 285 281 283 285 287 286 287 287 286 282 279 272 267 262 259 258 258 260 267 278
289 289 287 286 284 283 284 283 283 283 284 286 289 290 292 292 291 288 285 281 282 283 283 282 285 285 283 276 273 270 263 257 257 258 258 260 268 281
290 288 286 285 284 284 283 282 282 283 286 288 288 288 289 290 291 288 286 283 283 282 280 279 280 279 271 271 272 267 259 255 254 255 257 261 269 282
289 287 285 284 284 285 283 283 283 285 288 289 287 286 286 287 288 287 285 283 282 281 280 278 272 267 262 267 273 266 255 251 250 248 253 260 267 282
288 286 285 284 283 282 283 285 286 288 289 289 287 286 286 286 286 285 285 282 279 280 277 269 260 257 256 261 267 255 243 242 239 241 250 255 262 280
287 286 284 282 281 282 283 286 288 290 291 289 287 286 285 284 282 281 281 278 274 271 266 258 252 252 251 253 258 252 245 239 231 233 241 251 261 280
284 284 281 280 281 282 285 287 289 291 290 286 283 283 283 282 278 275 274 273 268 261 255 250 244 240 243 247 251 251 245 229 217 217 224 237 255 279
Height
5600 5601 5602 5604 5606 5608 5610 5611 5614 5616 5619 5620 5619 5620 5619 5620 5620 5620 5620 5620 5620 5621 5621 5622 5622 5622 5622 5622 5622 5622 5621 5621 5620 5619 5617 5614 5610 5608
5590 5592 5593 5594 5596 5598 5599 5601 5602 5603 5605 5607 5607 5607 5607 5608 5608 5608 5608 5607 5608 5608 5608 5608 5608 5608 5608 5608 5608 5608 5608 5608 5607 5606 5604 5602 5599 5596
5582 5583 5584 5585 5586 5588 5589 5590 5591 5591 5593 5596 5596 5596 5597 5597 5597 5597 5596 5595 5595 5595 5595 5595 5595 5595 5595 5595 5595 5595 5595 5594 5594 5593 5592 5590 5588 5586
5575 5575 5576 5577 5578 5579 5580 5581 5581 5581 5582 5584 5586 5586 5587 5586 5587 5587 5586 5585 5584 5584 5583 5583 5583 5582 5582 5582 5582 5582 5582 5582 5582 5581 5580 5579 5578 5575
5567 5568 5569 5569 5570 5571 5571 5572 5572 5573 5573 5574 5576 5576 5577 5576 5576 5576 5576 5575 5574 5573 5572 5571 5571 5571 5570 5570 5570 5570 5570 5570 5571 5571 5569 5568 5568 5566
5561 5561 5562 5562 5563 5563 5564 5564 5564 5564 5564 5565 5565 5567 5567 5566 5566 5566 5566 5565 5564 5562 5561 5560 5560 5559 5559 5558 5559 5559 5559 5559 5560 5560 5559 5558 5557 5556
5555 5555 5555 5555 5556 5556 5556 5556 5556 5556 5556 5556 5556 5557 5557 5556 5556 5556 5556 5555 5554 5552 5551 5550 5549 5549 5548 5547 5547 5547 5548 5549 5549 5549 5549 5548 5547 5546
5549 5549 5549 5549 5549 5549 5548 5548 5548 5547 5547 5547 5548 5548 5548 5547 5547 5546 5545 5545 5545 5543 5541 5540 5539 5539 5538 5538 5537 5538 5538 5539 5539 5540 5539 5539 5538 5537
5543 5543 5543 5543 5542 5542 5541 5541 5540 5539 5539 5539 5539 5539 5539 5539 5538 5537 5536 5535 5534 5532 5531 5531 5529 5529 5529 5528 5528 5528 5529 5530 5530 5530 5530 5529 5529 5529
5537 5536 5536 5536 5535 5534 5534 5534 5533 5533 5532 5531 5531 5531 5530 5529 5528 5528 5527 5526 5525 5522 5521 5521 5520 5520 5519 5519 5519 5520 5520 5521 5521 5521 5521 5521 5521 5521
5530 5530 5529 5529 5528 5527 5527 5527 5526 5525 5523 5523 5522 5522 5521 5520 5519 5519 5518 5517 5516 5515 5513 5513 5512 5512 5512 5512 5511 5511 5511 5511 5512 5512 5512 5513 5513 5513
5524 5523 5522 5521 5521 5520 5519 5518 5517 5516 5515 5515 5514 5514 5513 5512 5511 5510 5509 5508 5508 5507 5506 5506 5505 5504 5505 5505 5504 5503 5503 5503 5503 5504 5505 5506 5506 5506
5518 5516 5515 5514 5513 5512 5511 5510 5509 5508 5507 5506 5506 5506 5505 5504 5503 5502 5500 5500 5500 5500 5499 5498 5498 5497 5496 5497 5496 5496 5496 5496 5497 5497 5498 5499 5500 5500
5511 5510 5509 5507 5506 5505 5504 5503 5501 5500 5500 5499 5499 5498 5498 5497 5495 5494 5493 5493 5492 5492 5492 5491 5491 5490 5490 5489 5489 5489 5489 5490 5491 5491 5492 5493 5494 5494
5503 5502 5501 5500 5499 5497 5496 5495 5494 5493 5493 5493 5492 5492 5491 5490 5488 5487 5486 5485 5485 5485 5485 5484 5484 5483 5483 5483 5483 5484 5484 5485 5485 5486 5487 5488 5489 5489
5496 5494 5493 5492 5491 5490 5488 5487 5486 5486 5486 5486 5486 5485 5484 5483 5481 5480 5479 5479 5480 5479 5478 5478 5478 5477 5477 5477 5477 5478 5479 5480 5480 5481 5482 5483 5484 5485
5488 5487 5486 5484 5483 5482 5481 5480 5479 5479 5479 5479 5479 5478 5477 5476 5475 5474 5473 5473 5473 5474 5473 5472 5472 5472 5472 5472 5472 5473 5474 5475 5476 5477 5478 5480 5481 5481
5481 5480 5478 5477 5476 5475 5474 5473 5473 5472 5472 5472 5472 5472 5471 5470 5469 5468 5467 5467 5467 5467 5467 5467 5467 5467 5468 5468 5469 5469 5470 5471 5472 5473 5474 5476 5477 5477
5474 5472 5471 5470 5469 5468 5467 5467 5467 5466 5466 5466 5466 5465 5465 5464 5463 5463 5462 5462 5462 5462 5462 5462 5462 5463 5464 5465 5465 5466 5467 5467 5469 5470 5471 5473 5474 5474
5467 5466 5464 5463 5462 5462 5461 5461 5461 5460 5460 5459 5459 5458 5458 5458 5457 5457 5456 5456 5456 5456 5457 5457 5458 5458 5460 5461 5462 5463 5463 5464 5466 5467 5469 5470 5471 5471
5461 5459 5458 5457 5456 5456 5456 5455 5455 5454 5453 5452 5452 5452 5451 5451 5451 5451 5451 5451 5451 5452 5452 5453 5454 5455 5456 5458 5459 5459 5460 5462 5464 5465 5466 5468 5469 5469
5454 5453 5452 5451 5451 5451 5450 5450 5449 5448 5447 5446 5446 5446 5445 5445 5446 5446 5446 5446 5447 5448 5448 5450 5451 5452 5454 5455 5456 5457 5458 5460 5461 5463 5464 5466 5467 5468
5448 5447 5446 5446 5445 5445 5445 5444 5443 5442 5441 5441 5440 5440 5440 5440 5441 5441 5442 5442 5443 5444 5445 5447 5448 5450 5451 5453 5454 5456 5457 5458 5459 5461 5463 5464 5465 5466